Regional Weather Roundup
Issued by NWS

Home | Current Version | Previous Version | Graphics & Text | Print | Product List | Glossary On
Versions: 1 2 3 4 5 6 7 8 9 10 11 12 13 14 15 16 17 18 19 20 21 22 23 24 25 26 27 28 29 30 31 32 33 34 35 36 37 38 39 40 41 42 43 44 45 46 47 48 49 50
000
ASUS43 KLOT 252012
RWRIL

ILLINOIS REGIONAL WEATHER ROUNDUP
NATIONAL WEATHER SERVICE CHICAGO/ROMEOVILLE IL
300 PM CDT SAT APR 25 2015

NOTE: "FAIR" INDICATES FEW OR NO CLOUDS BELOW 12,000 FEET WITH NO
SIGNIFICANT WEATHER AND/OR OBSTRUCTIONS TO VISIBILITY.

* THESE STATIONS ARE NOT UNDER NWS QUALITY CONTROL. THEY ALSO MAY NOT
  REPORT WEATHER SUCH AS PRECIPITATION OR FOG.

ILZ001-002-007-009-015-016-024-252100-
NORTHWEST ILLINOIS

CITY           SKY/WX    TMP DP  RH WIND       PRES   REMARKS
MOLINE         CLOUDY    50  43  77 E28G33    29.66R
STERLING*      CLOUDY    48  43  81 E21G32    29.66R
SAVANNA*       PTSUNNY   51  41  69 NE22G33   29.69R
$$

ILZ003-004-008-010-011-017-018-252100-
NORTH CENTRAL ILLINOIS

CITY           SKY/WX    TMP DP  RH WIND       PRES   REMARKS
ROCKFORD       CLOUDY    50  40  68 NE18G29   29.75F
FREEPORT*      CLOUDY    47  40  75 NE24G33   29.74F
ROCHELLE*      CLOUDY    46  43  86 NE26      29.69F
DE KALB*       CLOUDY    45  42  88 NE24      29.71F
PERU*          CLOUDY    48  45  90 E25G39    29.64R
$$

ILZ005-006-012>014-019>023-252100-
NORTHEAST ILLINOIS

CITY           SKY/WX    TMP DP  RH WIND       PRES   REMARKS
CHICAGO-OHARE  CLOUDY    46  42  86 E16G22    29.73F
CHICAGO-MIDWAY LGT RAIN  46  43  89 NE18      29.72F
AURORA         CLOUDY    48  42  80 NE20G29   29.69F HAZE
LANSING*       RAIN      45  41  88 NE15G24   29.70F
JOLIET*        LGT RAIN  46  44  93 NE16G26   29.66F
WAUKEGAN       CLOUDY    42  37  82 NE12      29.78F
DUPAGE AIRPORT LGT RAIN  46  42  86 NE18G26   29.71F
KANKAKEE*      CLOUDY    48  44  86 E18G30    29.66R
WHEELING       CLOUDY    44  40  85 NE13      29.76F
MORRIS*        LGT RAIN  46  43  89 E17G29    29.63S
ROMEOVILLE*    RAIN      45  42  91 NE22      29.67F
NORTHERLY ISL    N/A     43  40  89 NE18        N/A
$$

LMZ740>746-252100-
SOUTHERN LAKE MICHIGAN

STATION/POSITION SKY/WX   TEMP    WIND        PRES    VSBY  WAVE
                          AIR SEA DIR/SP/G                  HT/PER
                          (F)     (DEG/KT/KT) (MB)    (MI)  (FT/S)
HARRISON CRIB              40      40/ 13/ 14   N/A
BURNHAM HARBOR             43      40/ 17/ 17   N/A
CALUMET HARBOR             43      40/  9/ 12   N/A
BURNS HARBOR               45      70/ 13/ 16 1008.5F
MICHIGAN CITY              44      90/  4/  6   N/A
MICHIGAN CITY 6N           44 45   80/ 12/ 14   N/A           1/ 4
$$

ILZ025>027-034>036-040-047-049-050-058-095>099-252100-
WEST-CENTRAL ILLINOIS

CITY           SKY/WX    TMP DP  RH WIND       PRES   REMARKS
QUINCY         CLOUDY    55  51  86 E15       29.55R
GALESBURG*     CLOUDY    47  44  91 NE16G22   29.64R
MACOMB*        CLOUDY    51  48  91 NE15      29.61R
JACKSONVILLE*  CLOUDY    58  53  84 E15       29.55R
PITTSFIELD*    RAIN      55  53  93 NE10      29.54S
$$

ILZ028>032-037-038-041>044-048-051>054-059>061-252100-
CENTRAL ILLINOIS

CITY           SKY/WX    TMP DP  RH WIND       PRES   REMARKS
PONTIAC        CLOUDY    49  46  92 E28G33    29.63F
BLOOMINGTON    CLOUDY    50  47  89 E18       29.61S
DECATUR        CLOUDY    54  49  83 E18       29.56F
PEORIA         CLOUDY    50  44  80 E15       29.62R
LACON*         CLOUDY    46  42  88 E9        29.65R
LINCOLN*       CLOUDY    55  49  82 E10G18    29.57R
SPRINGFIELD    CLOUDY    56  50  80 E17       29.55F
TAYLORVILLE    CLOUDY    52  50  93 E16G23    29.54F FOG
$$

ILZ033-039-045-046-055>057-062-063-252100-
EAST-CENTRAL ILLINOIS

CITY           SKY/WX    TMP DP  RH WIND       PRES   REMARKS
CHAMPAIGN      CLOUDY    51  47  86 E18G26    29.58R
DANVILLE*      CLOUDY    49  44  85 E17G29    29.58F
RANTOUL*       CLOUDY    52  47  84 E17G26    29.60S
MATTOON        CLOUDY    51  49  92 E12       29.56S
PARIS*         CLOUDY    50  49  96 E17G24    29.59F
$$

ILZ079-100>102-252100-
SOUTHWEST ILLINOIS

CITY           SKY/WX    TMP DP  RH WIND       PRES   REMARKS
ALTON          DRIZZLE   57  57 100 NE14      29.51R
BELLEVILLE     LGT RAIN  66  64  95 N3        29.47F
CAHOKIA*       LGT RAIN  65  60  84 CALM      29.48S
SPARTA*        PTSUNNY   65  62  90 N14G20    29.48R
$$

ILZ064>066-069>071-074>076-080>082-084>086-088>090-092>094-252100-
SOUTH-CENTRAL ILLINOIS

CITY           SKY/WX    TMP DP  RH WIND       PRES   REMARKS
CARBONDALE     MOSUNNY   76  59  55 S16       29.45F
CAIRO*         SUNNY     76  62  63 S17G24    29.49F
EFFINGHAM*     DRIZZLE   53  51  92 NE8G16    29.56F
MT. VERNON     PTSUNNY   68  55  64 N3        29.49F
CENTRALIA*     RAIN      64  60  84 CALM      29.49R
SALEM*         RAIN      67  60  77 NW3       29.50S
METROPOLIS*    PTSUNNY   75  62  62 SW12G20   29.49F
$$

ILZ067-068-072-073-078-083-087-091-252100-
SOUTHEAST ILLINOIS

CITY           SKY/WX    TMP DP  RH WIND       PRES   REMARKS
LAWRENCEVILLE  CLOUDY    55  54  96 NE14      29.55S FOG
FLORA*         CLOUDY    59  56  92 NE14      29.52S FOG
FAIRFIELD*     CLOUDY    69  58  66 SW5       29.48F
HARRISBURG*    MOSUNNY   74  58  56 SW10      29.48F
ROBINSON*      CLOUDY    53  52  97 NE10      29.56S FOG
CARMI*         PTSUNNY   73  55  53 W10       29.49F
$$

ABBREVIATIONS USED IN REMARKS
   TC - TEMPERATURE IN CELSIUS
  WCI - WIND CHILL INDEX
   HX - HEAT INDEX
  VSB - VISIBILITY
$$



USA.gov is the U.S. government's official web portal to all federal, state and local government web resources and services.